Madison, SD

4:07 AM CDT on July 23, 2017 (GMT -0500)
Madison Municipal

Weather History for KMDS - January, 2013

Change the Weather History Date:

Saturday, January 5, 2013

  Actual Average Record
Temperature  
Mean Temperature 14 °F -  
Max Temperature 23 °F 20 °F 59 °F (2012)
Min Temperature 5 °F 1 °F -16 °F (2014)
Degree Days  
Heating Degree Days 51    
Moisture  
Dew Point 13 °F    
Average Humidity 99    
Maximum Humidity 100    
Minimum Humidity 86    
Precipitation  
Precipitation 0.01 in - - ()
Sea Level Pressure  
Sea Level Pressure 29.98 in    
Wind  
Wind Speed 10 mph (WNW)    
Max Wind Speed 26 mph    
Max Gust Speed 37 mph    
Visibility 10 miles    
Events Rain , Snow    
Averages and records for this station are not official NWS values.
T = Trace of Precipitation, MM = Missing Value Source: NWS Daily Summary

Daily Weather History Graph

Daily Weather History Graph

Search for Another Location

Airport or City:

Trip Planner

Search our weather history database for the weather conditions in past years. The results will help you decide how hot, cold, wet, or windy it might be!

Date:

Astronomy

Jan. 05, 2013 Rise Set
Actual Time 8:03 AM CST 5:05 PM CST
Civil Twilight 7:30 AM CST 5:37 PM CST
Nautical Twilight 6:54 AM CST 6:14 PM CST
Astronomical Twilight 6:19 AM CST 6:48 PM CST
Moon 1:03 AM CST (1/5) 12:01 PM CST (1/5)
Length of Visible Light 10h 07m
Length of Day
9h 02m
Last Quarter, 44% of the Moon is Illuminated
Jan 5
Last Quarter
Jan 11
New
Jan 18
First Quarter
Jan 26
Full
Feb 3
Last Quarter

Hourly Weather History & Observations

Time (CST) Temp. Windchill Dew Point Humidity Pressure Visibility Wind Dir Wind Speed Gust Speed Precip Events Conditions
12:00 AM 8.6 °F 2.0 °F 8.6 °F 100% 30.01 in 10.0 mi SW 3.5 mph - N/A   Clear
12:20 AM 8.6 °F - 8.6 °F 100% 30.01 in 10.0 mi Calm Calm - N/A   Clear
12:40 AM 8.6 °F 2.0 °F 8.6 °F 100% 30.00 in 10.0 mi SW 3.5 mph - N/A   Clear
1:00 AM 10.4 °F - 10.4 °F 100% 29.99 in 10.0 mi Calm Calm - N/A   Clear
1:20 AM 8.6 °F -1.3 °F 8.6 °F 100% 29.98 in 10.0 mi South 5.8 mph - N/A   Clear
1:40 AM 5.0 °F -5.6 °F 5.0 °F 100% 29.97 in 10.0 mi NNW 5.8 mph - N/A   Clear
2:00 AM 6.8 °F - 6.8 °F 100% 29.96 in 10.0 mi Calm Calm - N/A   Clear
2:20 AM 8.6 °F - 8.6 °F 100% 29.96 in 10.0 mi Calm Calm - N/A   Clear
2:40 AM 5.0 °F -2.1 °F 5.0 °F 100% 29.95 in 10.0 mi North 3.5 mph - N/A   Clear
3:00 AM 5.0 °F - 5.0 °F 100% 29.96 in 10.0 mi Calm Calm - N/A   Clear
3:20 AM 5.0 °F -2.1 °F 5.0 °F 100% 29.97 in 10.0 mi South 3.5 mph - N/A   Clear
3:40 AM 5.0 °F -4.1 °F 5.0 °F 100% 29.96 in 10.0 mi South 4.6 mph - N/A   Clear
4:00 AM 6.8 °F -5.9 °F 6.8 °F 100% 29.95 in 10.0 mi South 8.1 mph - N/A   Clear
4:20 AM 6.8 °F -3.5 °F 6.8 °F 100% 29.94 in 10.0 mi South 5.8 mph - N/A   Clear
4:40 AM 6.8 °F -2.0 °F 6.8 °F 100% 29.93 in 10.0 mi SW 4.6 mph - N/A   Clear
5:00 AM 6.8 °F -3.5 °F 6.8 °F 100% 29.92 in 10.0 mi West 5.8 mph - N/A   Clear
5:20 AM 5.0 °F -2.1 °F 5.0 °F 100% 29.93 in 10.0 mi West 3.5 mph - N/A   Clear
5:40 AM 6.8 °F -3.5 °F 6.8 °F 100% 29.92 in 10.0 mi SW 5.8 mph - N/A   Clear
6:00 AM 6.8 °F -4.8 °F 6.8 °F 100% 29.92 in 10.0 mi SW 6.9 mph - N/A   Clear
6:20 AM 5.0 °F -6.9 °F 5.0 °F 100% 29.92 in 10.0 mi SW 6.9 mph - N/A   Clear
6:40 AM 6.8 °F -3.5 °F 6.8 °F 100% 29.91 in 10.0 mi WSW 5.8 mph - N/A   Clear
7:00 AM 6.8 °F -3.5 °F 6.8 °F 100% 29.92 in 10.0 mi WSW 5.8 mph - N/A   Clear
7:20 AM 5.0 °F -5.6 °F 5.0 °F 100% 29.92 in 10.0 mi West 5.8 mph - N/A   Clear
7:40 AM 6.8 °F -3.5 °F 6.8 °F 100% 29.92 in 10.0 mi WSW 5.8 mph - N/A   Clear
8:00 AM 6.8 °F -3.5 °F 6.8 °F 100% 29.93 in 10.0 mi SW 5.8 mph - N/A   Clear
8:20 AM 8.6 °F -2.6 °F 8.6 °F 100% 29.93 in 10.0 mi SW 6.9 mph - N/A   Clear
8:40 AM 8.6 °F -3.7 °F 8.6 °F 100% 29.93 in 10.0 mi SW 8.1 mph - N/A   Clear
9:00 AM 10.4 °F -1.5 °F 10.4 °F 100% 29.93 in 10.0 mi WSW 8.1 mph - N/A   Clear
9:40 AM 15.8 °F 0.3 °F 15.8 °F 100% 29.94 in 10.0 mi West 16.1 mph - N/A   Clear
10:00 AM 17.6 °F 3.7 °F 17.6 °F 100% 29.94 in 10.0 mi West 13.8 mph - N/A   Clear
10:40 AM 19.4 °F 5.0 °F 17.6 °F 93% 29.94 in 10.0 mi WNW 16.1 mph - N/A   Clear
11:00 AM 21.2 °F 8.3 °F 17.6 °F 86% 29.93 in 10.0 mi West 13.8 mph - N/A   Clear
11:20 AM 23.0 °F 10.6 °F 19.4 °F 86% 29.93 in 10.0 mi WNW 13.8 mph 19.6 mph N/A   Clear
11:40 AM 23.0 °F 9.2 °F 19.4 °F 86% 29.92 in 10.0 mi WNW 17.3 mph - N/A   Clear
12:00 PM 23.0 °F 8.0 °F 21.2 °F 93% 29.92 in 10.0 mi WNW 20.7 mph - N/A   Clear
12:20 PM 23.0 °F 8.3 °F 23.0 °F 100% 29.92 in 10.0 mi WNW 19.6 mph - N/A   Clear
12:40 PM 23.0 °F 7.6 °F 23.0 °F 100% 29.91 in 10.0 mi NW 21.9 mph 25.3 mph N/A   Clear
1:00 PM 23.0 °F 8.3 °F 23.0 °F 100% 29.91 in 10.0 mi NW 19.6 mph 26.5 mph N/A   Clear
1:20 PM 23.0 °F 7.6 °F 23.0 °F 100% 29.92 in 10.0 mi NW 21.9 mph - N/A   Partly Cloudy
1:40 PM 23.0 °F 7.6 °F 23.0 °F 100% 29.92 in 10.0 mi NW 21.9 mph 32.2 mph N/A   Mostly Cloudy
2:00 PM 23.0 °F 8.3 °F 23.0 °F 100% 29.92 in 10.0 mi NW 19.6 mph 27.6 mph N/A   Overcast
2:20 PM 23.0 °F 8.0 °F 23.0 °F 100% 29.92 in 10.0 mi NW 20.7 mph 33.4 mph N/A   Overcast
2:40 PM 21.2 °F 5.6 °F 21.2 °F 100% 29.93 in 10.0 mi NW 20.7 mph 25.3 mph N/A   Overcast
3:00 PM 21.2 °F 4.5 °F 21.2 °F 100% 29.94 in 9.0 mi NW 24.2 mph 31.1 mph N/A Snow Light Snow
3:20 PM 19.4 °F 2.5 °F 19.4 °F 100% 29.94 in 10.0 mi NW 23.0 mph 28.8 mph N/A Snow Light Snow
3:40 PM 19.4 °F 2.8 °F 19.4 °F 100% 29.94 in 7.0 mi NW 21.9 mph 29.9 mph N/A Snow Light Snow
4:00 PM 19.4 °F 3.2 °F 19.4 °F 100% 29.95 in 10.0 mi NW 20.7 mph 31.1 mph N/A   Overcast
4:40 PM 17.6 °F 0.1 °F 17.6 °F 100% 29.97 in 9.0 mi NW 23.0 mph 29.9 mph N/A Snow Light Snow
5:00 PM 15.8 °F -3.4 °F 15.8 °F 100% 29.98 in 6.0 mi NW 26.5 mph 33.4 mph N/A   Overcast
5:20 PM 15.8 °F -3.1 °F 15.8 °F 100% 30.00 in 10.0 mi NW 25.3 mph 31.1 mph N/A   Overcast
5:40 PM 15.8 °F -2.3 °F 15.8 °F 100% 30.01 in 10.0 mi NW 23.0 mph 27.6 mph N/A   Overcast
6:00 PM 14.0 °F -5.8 °F 14.0 °F 100% 30.03 in 10.0 mi NW 26.5 mph 36.8 mph N/A Snow Light Snow
6:20 PM 12.2 °F -6.7 °F 12.2 °F 100% 30.05 in 5.0 mi NNW 21.9 mph 31.1 mph N/A Snow Light Snow
6:40 PM 12.2 °F -6.7 °F 12.2 °F 100% 30.06 in 10.0 mi NNW 21.9 mph 28.8 mph N/A Snow Light Snow
7:00 PM 14.0 °F -4.3 °F 14.0 °F 100% 30.06 in 10.0 mi NNW 21.9 mph 28.8 mph 0.01 in Snow Light Snow
7:40 PM 15.8 °F -1.9 °F 15.8 °F 100% 30.07 in 10.0 mi NNW 21.9 mph 28.8 mph N/A Rain Light Freezing Rain
8:00 PM 15.8 °F -1.9 °F 15.8 °F 100% 30.07 in 10.0 mi NNW 21.9 mph 27.6 mph N/A   Overcast
8:20 PM 15.8 °F -2.3 °F 15.8 °F 100% 30.08 in 10.0 mi NNW 23.0 mph 31.1 mph N/A   Overcast
8:40 PM 15.8 °F -1.9 °F 15.8 °F 100% 30.09 in 10.0 mi NW 21.9 mph - N/A   Overcast
9:00 PM 14.0 °F -4.3 °F 14.0 °F 100% 30.11 in 10.0 mi NW 21.9 mph 31.1 mph N/A   Mostly Cloudy
9:20 PM 14.0 °F -3.9 °F 14.0 °F 100% 30.11 in 10.0 mi NW 20.7 mph - N/A   Scattered Clouds
9:40 PM 14.0 °F -3.0 °F 14.0 °F 100% 30.12 in 10.0 mi NW 18.4 mph - N/A   Scattered Clouds
10:00 PM 12.2 °F -4.8 °F 12.2 °F 100% 30.12 in 10.0 mi NW 17.3 mph - N/A   Partly Cloudy
10:20 PM 12.2 °F -4.3 °F 12.2 °F 100% 30.12 in 10.0 mi NW 16.1 mph - N/A   Scattered Clouds
10:40 PM 10.4 °F -4.8 °F 10.4 °F 100% 30.12 in 10.0 mi NW 12.7 mph - N/A   Partly Cloudy
11:00 PM 10.4 °F -6.0 °F 10.4 °F 100% 30.13 in 10.0 mi NW 15.0 mph - N/A   Clear
11:20 PM 8.6 °F -7.7 °F 8.6 °F 100% 30.14 in 10.0 mi NW 13.8 mph - N/A   Clear
11:40 PM 8.6 °F -7.7 °F 8.6 °F 100% 30.13 in 10.0 mi NW 13.8 mph - N/A   Clear